SCP
0 0 0 0 0 0 0 0 0 0 1 1 1 1 1 0 0 0 0 0 0 0 0 0 0 0 0 0 0 0 0 0 0 0 0 0 0 0 0 0 0 0 0 0
0 0 0 0 0 0 0 0 0 0 1 1 1 1 1 0 0 0 0 0 0 0 0 0 0 0 0 0 0 0 0 0 0 0 0 0 0 0 0 0 0 0 0 0
0 0 0 0 0 0 0 0 0 1 1 1 1 1 0 0 0 0 0 0 0 0 0 0 0 0 0 0 0 0 0 0 0 0 0 0 0 0 0 0 0 0 0 0
0 0 0 0 0 0 0 0 1 1 1 1 0 0 0 0 0 0 0 0 0 0 0 0 0 0 0 0 0 0 0 0 0 0 0 0 0 0 0 0 0 0 0 0
0 0 0 0 0 0 0 0 0 0 0 0 0 0 0 0 0 0 0 0 0 0 0 0 0 0 0 0 0 0 0 0 0 0 0 0 0 0 0 0 0 0 0 0
0 0 0 0 0 0 0 0 0 0 0 0 0 0 0 0 0 0 0 0 0 0 0 0 0 0 0 0 0 0 0 0 0 0 0 0 0 0 0 0 0 0 0 0
0 0 0 0 0 0 0 0 0 0 0 0 0 0 0 0 0 0 0 0 0 0 0 0 0 0 0 0 0 0 0 0 0 0 0 0 0 0 0 0 0 0 0 0
0 0 0 0 0 0 0 0 0 0 0 0 0 0 0 0 0 0 0 0 0 0 0 0 0 0 0 0 0 0 0 0 0 0 0 0 0 0 0 0 0 0 0 0
0 0 0 0 0 0 0 0 0 0 0 0 0 0 0 0 0 0 0 0 0 0 0 0 0 0 0 0 0 0 0 0 0 0 0 0 0 0 0 0 0 0 0 0
0 0 0 0 0 0 0 0 0 0 0 0 0 0 0 0 0 0 0 0 0 0 0 0 0 0 0 0 0 0 0 0 0 0 0 0 0 0 0 0 0 0 0 0
0 0 0 0 0 0 0 0 0 0 0 0 0 0 0 0 0 0 0 0 0 0 0 0 0 0 0 0 0 0 0 0 0 0 0 0 0 0 0 0 0 0 0 0
0 0 0 0 0 0 0 0 0 0 0 0 0 0 0 0 0 0 0 0 0 0 0 0 0 0 0 0 0 0 0 0 0 0 0 0 0 0 0 0 0 0 0 0
0 0 0 0 0 0 0 0 0 0 0 0 0 0 0 0 0 0 0 0 0 0 0 0 0 0 0 0 0 0 0 0 0 0 0 0 0 0 0 0 0 0 0 0
0 0 0 0 0 0 0 0 0 0 0 0 0 0 0 0 0 0 0 0 0 0 0 0 0 0 0 0 0 0 0 0 0 0 0 0 0 0 0 0 0 0 0 -0
0 0 0 0 0 0 0 0 0 0 0 0 0 0 0 0 0 0 0 0 0 0 0 0 0 0 0 0 0 0 0 0 0 0 0 0 0 0 0 0 0 0 -0 -0
0 0 0 0 0 0 0 0 0 0 0 0 0 0 0 0 0 0 0 0 0 0 0 0 0 0 0 0 0 0 0 0 0 0 0 0 0 0 0 -0 -0 -0 -0 -0
0 0 0 0 0 0 0 0 0 0 0 0 0 0 0 0 0 0 0 0 0 0 0 0 0 -0 -0 0 0 0 0 0 0 0 0 0 0 -0 -0 -0 -0 -0 -0 -0
0 0 0 0 0 0 0 0 0 0 0 0 0 0 0 0 0 0 0 0 0 0 0 0 0 -0 -0 0 0 0 0 0 0 0 0 -0 -0 -0 -0 -0 -0 -0 0 0
0 0 0 0 0 0 0 0 0 0 0 0 0 0 0 0 0 0 0 0 0 0 0 0 0 -0 -0 0 0 0 0 0 -0 -0 -0 -0 -0 -0 -0 -0 -0 0 0 0
0 0 0 0 0 0 0 0 -0 -0 -0 -0 -0 0 0 0 0 0 0 0 0 0 0 0 0 -0 -0 -0 0 0 0 -0 -0 -0 -0 -0 -0 -0 -0 -0 -0 0 0 0
0 0 0 0 0 0 0 -0 -0 -0 -0 -0 -0 -0 0 0 0 0 0 0 0 0 0 0 0 -0 -0 -0 0 -0 -0 -0 -0 -0 -0 -0 -0 -0 -0 -0 -0 0 0 0
0 0 0 0 0 0 0 -0 -0 -0 -0 -0 -0 -0 0 0 0 0 0 0 0 0 0 0 0 0 0 0 0 -0 -0 -0 -0 -0 -0 -0 -0 -0 -0 0 0 0 0 0
0 0 0 0 0 0 0 -0 -0 -0 -0 -0 -0 -0 -0 0 0 0 0 0 0 0 0 0 0 0 0 0 0 0 0 0 0 0 0 0 0 0 0 0 0 0 0 0
0 0 0 0 0 0 0 -0 -0 -0 -0 -0 -0 -0 -0 -0 0 0 0 0 0 0 0 0 0 0 0 0 0 0 0 0 0 0 0 0 0 0 0 0 0 0 0 0
0 0 0 0 0 0 0 0 0 0 -0 -0 -0 -0 -0 -0 0 0 0 0 0 0 0 0 0 0 0 0 0 0 0 0 0 0 0 0 0 0 0 0 0 0 0 0
0 0 0 0 0 0 0 0 0 0 0 -0 -0 -0 -0 0 0 0 0 0 0 0 0 0 0 0 0 0 0 0 0 0 0 0 0 0 0 0 0 0 0 -0 0 0
0 0 0 0 0 0 0 0 0 0 0 -0 -0 -0 -0 -0 0 0 0 0 0 0 0 0 0 0 0 0 0 0 0 0 0 0 0 0 0 0 0 0 -0 -0 -0 -0
Wind_Speed
2 2 2 2 3 4 5 6 7 2 5 10 11 13 14 14 14 13 12 11 10 9 9 9 10 10 10 10 10 10 11 12 11 10 10 9 8 7 6 5 4 3 3 3
3 1 2 2 2 2 2 3 2 1 4 8 9 11 12 12 13 13 12 11 10 10 9 9 9 9 9 10 9 10 11 10 9 8 8 7 6 5 5 4 4 3 3 3
5 2 7 6 3 4 2 3 3 2 5 11 11 10 8 10 11 12 11 10 10 9 8 8 8 9 9 9 9 10 9 8 7 6 6 5 5 5 4 4 4 4 4 4
5 5 8 6 6 5 3 4 6 6 9 11 13 13 12 9 11 11 10 10 9 8 9 9 9 9 9 9 9 8 8 6 5 5 5 5 5 5 4 4 4 4 4 5
5 7 4 6 4 6 5 3 6 8 12 13 14 14 11 10 10 10 10 9 9 9 10 9 9 9 9 9 8 8 7 6 5 5 5 5 5 5 4 4 4 3 4 4
5 6 3 6 8 6 5 2 6 7 10 10 7 4 6 8 10 11 10 9 9 9 10 9 8 7 8 8 7 7 6 6 6 6 5 5 5 4 4 3 3 4 4 4
5 5 3 9 8 5 3 5 5 7 8 7 7 9 11 11 11 11 11 10 10 9 9 8 7 7 7 7 7 6 6 6 6 5 5 4 3 3 3 3 3 4 4 3
3 3 3 10 6 7 6 5 7 9 11 13 14 14 13 12 11 11 11 10 10 9 8 7 6 6 7 7 6 5 5 5 5 4 3 3 2 2 2 3 2 3 3 4
4 4 5 5 6 5 4 6 7 9 12 14 15 13 13 12 11 11 11 10 9 9 8 6 5 5 6 6 4 4 4 4 4 3 2 2 1 1 2 2 3 4 4 5
1 4 5 5 6 6 7 7 8 9 12 14 15 14 13 12 11 11 10 9 8 8 8 7 6 5 5 4 3 3 3 3 2 1 1 1 2 2 3 4 4 5 5 6
3 3 5 5 6 6 7 8 10 10 11 14 16 15 14 12 11 10 9 8 7 7 7 7 6 5 5 4 2 2 2 1 1 1 2 1 1 3 4 5 5 6 7 6
2 4 2 5 5 5 7 8 10 12 13 13 14 15 13 12 11 10 9 8 7 7 7 6 6 6 5 4 2 1 1 0 1 1 1 2 1 2 3 1 4 1 2 5
3 5 5 5 6 6 7 9 11 12 14 15 13 13 13 12 10 10 9 8 7 7 6 6 5 5 4 3 1 2 2 2 2 2 2 2 3 3 1 4 6 5 2 2
2 2 3 5 6 7 10 12 13 14 14 14 13 13 12 11 10 9 8 7 6 6 6 5 4 3 3 2 2 3 3 1 3 2 2 3 3 3 3 3 2 2 3 1
2 1 4 8 9 10 11 13 14 14 15 14 13 12 12 11 10 9 7 6 6 5 5 4 3 4 4 5 5 5 5 3 2 2 2 2 2 3 3 4 4 4 4 3
5 6 9 10 11 12 13 14 15 15 15 14 13 12 11 10 9 8 6 5 4 5 5 4 5 6 6 6 6 4 1 2 3 3 1 2 2 3 3 4 4 4 5 6
8 9 10 12 12 13 13 14 15 15 14 14 12 11 10 9 8 7 6 6 5 5 4 5 6 7 6 5 6 4 2 3 4 2 1 2 3 3 3 4 4 5 5 6
7 9 11 13 13 14 14 15 15 15 13 13 11 10 9 8 8 7 6 5 4 4 5 6 7 7 6 6 5 4 3 3 2 3 3 4 3 3 4 4 5 5 4 3
11 13 14 15 15 15 15 14 14 14 13 11 10 9 8 8 8 7 5 4 3 5 6 7 4 4 5 6 5 1 3 3 3 3 4 3 1 4 4 5 5 5 5 5
14 15 16 16 15 15 15 14 13 12 11 10 10 10 9 8 7 6 5 5 5 6 5 6 5 5 5 5 6 3 4 4 4 3 3 3 4 4 4 5 5 5 5 5
16 16 17 16 15 15 14 13 12 11 10 10 10 9 9 8 6 5 4 6 5 4 3 1 3 5 5 3 3 4 4 4 4 4 3 4 4 4 5 5 5 5 5 5
15 16 16 16 15 14 13 12 11 11 10 9 10 9 9 8 7 5 5 5 5 3 3 5 7 6 6 7 4 5 5 5 4 4 4 4 4 5 5 5 5 5 6 6
14 15 15 15 14 13 12 11 11 10 10 9 9 8 7 6 4 5 6 4 4 3 3 7 5 4 10 3 5 5 6 5 5 5 5 5 5 5 5 5 5 6 6 6
14 14 14 14 14 13 12 11 11 9 9 9 8 8 7 6 4 4 6 6 3 2 5 5 1 5 8 3 5 5 6 5 5 5 5 5 5 5 5 5 5 5 6 7
14 14 14 14 13 11 11 11 11 10 10 7 8 8 6 5 6 5 5 6 4 1 5 5 2 6 2 6 6 7 7 7 6 5 5 5 5 6 5 5 5 5 6 6
13 12 12 11 10 9 10 10 9 9 8 8 7 6 6 5 6 6 4 5 5 2 3 4 4 1 5 6 6 6 6 5 5 5 6 5 6 6 5 5 6 5 5 6
14 12 10 10 10 10 9 9 9 9 8 8 8 7 7 6 6 5 5 4 4 4 4 4 4 5 5 6 6 6 6 5 5 5 5 5 5 5 5 6 5 5 5 6
Wind_Direction
334 350 295 253 270 265 265 288 284 266 152 156 158 149 140 135 129 123 118 112 106 101 96 94 91 89 86 85 85 88 90 87 84 82 81 80 76 74 73 71 73 68 60 55
233 227 249 246 303 292 298 304 288 171 102 108 116 121 127 131 129 124 120 117 113 109 106 102 100 97 94 91 88 89 89 86 84 83 81 81 82 82 76 67 58 51 40 27
252 257 257 228 9 342 343 6 328 315 99 120 110 100 107 121 120 118 118 115 112 111 107 105 103 102 102 100 98 95 94 93 92 93 90 86 84 76 67 58 49 37 27 17
271 257 251 71 49 16 20 40 24 66 94 100 97 84 69 81 104 109 111 109 108 109 107 105 104 102 102 101 102 102 103 105 108 103 93 84 72 63 52 43 35 26 17 6
276 263 246 112 45 352 332 52 57 98 105 110 115 95 67 64 85 98 103 105 108 111 111 108 107 109 111 111 112 113 116 114 101 92 85 76 68 58 44 32 25 11 13 357
273 276 280 55 14 339 292 102 81 110 123 135 154 120 97 91 95 98 101 104 108 110 109 108 111 119 118 117 119 118 111 103 95 83 74 70 63 47 44 26 15 358 10 356
280 271 58 24 339 313 310 50 85 107 111 98 63 80 110 109 103 104 106 109 111 110 108 110 120 123 120 120 114 108 104 98 88 83 80 71 63 45 24 10 13 1 355 342
305 289 50 8 3 31 40 61 87 94 96 97 101 106 110 111 111 111 110 110 111 110 110 116 126 128 120 111 109 109 106 100 93 81 67 74 61 36 6 341 333 347 346 343
2 33 52 34 48 51 52 80 87 102 114 118 119 118 117 116 115 113 112 113 115 117 117 115 113 109 109 113 119 119 113 99 94 90 72 44 357 352 341 347 348 354 351 350
292 103 91 77 71 59 58 73 87 108 121 125 124 125 124 122 120 119 120 121 123 117 110 104 101 94 94 100 112 125 117 109 104 98 83 64 339 355 2 1 360 358 356 351
257 127 127 97 69 71 79 89 99 107 116 123 126 127 127 124 123 120 116 114 109 101 98 97 95 91 90 94 109 119 119 110 96 81 52 5 27 26 4 33 24 349 353 351
352 50 30 84 80 94 107 108 112 115 115 120 125 127 126 122 120 119 116 111 104 99 95 95 94 89 83 79 72 68 121 54 328 353 14 345 350 120 130 48 134 172 331 338
28 50 63 90 92 97 108 112 116 120 123 124 126 127 125 122 123 121 115 109 102 96 93 92 89 84 77 64 28 349 338 337 323 335 342 340 347 354 82 166 185 182 175 355
122 131 127 123 113 113 114 114 115 117 122 125 128 128 127 125 124 119 111 105 102 99 96 90 80 68 46 9 326 316 310 307 294 315 327 340 348 351 7 13 67 125 156 98
165 154 122 119 122 123 125 125 125 126 129 130 130 130 129 126 121 114 110 107 104 101 88 68 48 30 0 335 323 317 313 324 321 323 317 341 352 356 18 19 17 26 32 49
130 126 131 133 133 136 139 138 134 133 134 134 133 131 126 121 118 115 113 111 103 86 64 35 17 3 346 334 320 298 301 70 314 300 320 4 9 16 26 24 22 28 29 21
150 146 143 140 141 144 143 140 136 135 136 135 131 130 129 126 122 116 108 98 88 75 46 19 6 353 348 353 333 328 357 120 193 251 39 32 31 32 33 30 29 30 38 44
149 144 146 143 142 140 138 137 136 136 135 132 133 135 133 127 118 113 110 111 111 91 50 26 8 345 7 18 360 348 15 50 61 53 59 50 34 37 34 35 33 29 25 47
133 136 138 138 139 138 137 137 138 136 134 136 135 128 120 115 114 116 120 119 99 75 45 26 354 352 34 28 326 28 40 59 74 70 74 97 54 46 39 37 35 27 22 19
133 135 135 137 139 138 137 137 136 135 135 133 129 126 122 119 120 120 118 92 52 39 35 12 4 35 40 36 321 36 55 53 61 67 64 64 60 53 48 42 36 30 26 24
139 140 140 140 139 139 138 139 138 136 135 136 135 130 125 124 126 130 135 106 80 32 26 123 28 36 37 6 305 46 57 56 63 69 67 69 66 57 50 43 39 35 32 29
144 144 143 142 142 141 142 142 140 137 137 136 132 130 132 134 131 116 81 70 82 357 346 54 54 37 353 315 46 56 57 56 62 70 67 61 63 61 54 45 44 42 40 36
148 147 147 147 146 144 145 144 142 141 141 141 140 142 140 131 134 135 121 97 76 35 35 59 44 348 307 330 59 63 61 59 61 68 72 66 62 59 59 57 53 48 43 38
152 153 152 150 148 149 150 148 144 144 144 141 137 137 139 140 131 105 99 108 66 7 71 82 11 306 291 49 61 62 66 67 70 72 74 77 72 66 62 60 60 57 51 45
157 156 155 156 158 157 151 147 145 147 147 138 138 145 151 139 132 122 114 111 121 183 113 121 217 281 339 61 63 66 62 49 43 56 74 70 73 74 69 64 59 57 52 46
161 162 162 168 163 158 158 160 159 158 155 150 147 145 138 131 131 138 143 129 118 120 102 114 117 141 68 71 69 69 84 101 95 78 72 74 74 73 71 69 66 59 55 49
166 165 166 170 167 169 169 168 163 162 161 157 149 147 148 150 151 149 145 133 125 109 92 89 83 76 75 76 77 77 77 77 77 81 83 79 79 79 80 74 68 65 61 57